TimeAEST,TemperatureF,Dew PointF,Humidity,Sea Level PressureIn,VisibilityMPH,Wind Direction,Wind SpeedMPH,Gust SpeedMPH,PrecipitationIn,Events,Conditions,WindDirDegrees,DateUTC
12:00 AM,74,65,65,29.81,,South,6.9,,,,,180,2013-12-04 14:00:00
12:00 AM,73.4,64.4,73,29.80,6.2,South,6.9,-,N/A,,Partly Cloudy,180,2013-12-04 14:00:00
12:30 AM,71.6,66.2,83,29.80,-9999.0,ESE,8.1,-,N/A,,Clear,120,2013-12-04 14:30:00
1:00 AM,72,67,78,29.79,,SSE,6.9,,,,,150,2013-12-04 15:00:00
1:00 AM,71.6,66.2,83,29.77,-9999.0,SSE,6.9,-,N/A,,Clear,150,2013-12-04 15:00:00
1:30 AM,69.8,66.2,88,29.77,-9999.0,West,4.6,-,N/A,,Clear,270,2013-12-04 15:30:00
2:00 AM,68.0,66.2,94,29.77,-9999.0,North,3.5,-,N/A,,Clear,350,2013-12-04 16:00:00
2:30 AM,68.0,66.2,94,29.74,-9999.0,Calm,Calm,-,N/A,,Clear,0,2013-12-04 16:30:00
3:00 AM,68,66,93,29.76,,WSW,2.3,,,,,250,2013-12-04 17:00:00
3:00 AM,68.0,66.2,94,29.74,-9999.0,WSW,2.3,-,N/A,,Clear,250,2013-12-04 17:00:00
3:30 AM,68.0,66.2,94,29.74,-9999.0,Calm,Calm,-,N/A,,Clear,0,2013-12-04 17:30:00
4:00 AM,68,67,94,29.77,,West,4.6,,,,,280,2013-12-04 18:00:00
4:00 AM,68.0,66.2,94,29.74,6.2,West,4.6,-,N/A,,Unknown,280,2013-12-04 18:00:00
4:30 AM,68.0,66.2,94,29.77,-9999.0,Calm,Calm,-,N/A,,Clear,0,2013-12-04 18:30:00
5:00 AM,66.2,66.2,100,29.77,6.2,Calm,Calm,-,N/A,,Partly Cloudy,0,2013-12-04 19:00:00
5:30 AM,66.2,66.2,100,29.80,6.2,Calm,Calm,-,N/A,,Partly Cloudy,0,2013-12-04 19:30:00
6:00 AM,68,66,90,29.80,19,West,4.6,,,,Partly Cloudy,280,2013-12-04 20:00:00
6:00 AM,68.0,66.2,94,29.80,6.2,West,4.6,-,N/A,,Partly Cloudy,280,2013-12-04 20:00:00
6:30 AM,69.8,66.2,88,29.80,6.2,Calm,Calm,-,N/A,,Partly Cloudy,0,2013-12-04 20:30:00
7:00 AM,73,67,75,29.82,,Calm,Calm,,,,,,2013-12-04 21:00:00
7:00 AM,73.4,66.2,78,29.80,6.2,Calm,Calm,-,N/A,,Partly Cloudy,0,2013-12-04 21:00:00
7:30 AM,75.2,66.2,73,29.80,6.2,West,1.2,-,N/A,,Partly Cloudy,260,2013-12-04 21:30:00
8:00 AM,78.8,64.4,61,29.80,6.2,SSW,1.2,-,N/A,,Partly Cloudy,210,2013-12-04 22:00:00
8:30 AM,78.8,66.2,65,29.83,6.2,SE,5.8,-,N/A,,Partly Cloudy,140,2013-12-04 22:30:00
9:00 AM,81,64,48,29.83,19,East,5.8,,,,Partly Cloudy,100,2013-12-04 23:00:00
9:00 AM,80.6,64.4,58,29.83,6.2,East,5.8,-,N/A,,Partly Cloudy,100,2013-12-04 23:00:00
9:30 AM,80.6,64.4,58,29.80,6.2,NE,4.6,-,N/A,,Unknown,50,2013-12-04 23:30:00
10:00 AM,82,65,48,29.83,,NE,8.1,,,,,50,2013-12-05 00:00:00
10:00 AM,82.4,66.2,58,29.80,6.2,NE,8.1,-,N/A,,Partly Cloudy,50,2013-12-05 00:00:00
10:30 AM,82.4,64.4,54,29.80,6.2,NE,8.1,-,N/A,,Partly Cloudy,40,2013-12-05 00:30:00
11:00 AM,82.4,66.2,58,29.80,6.2,NNE,10.4,-,N/A,,Partly Cloudy,20,2013-12-05 01:00:00
11:30 AM,82.4,66.2,58,29.80,6.2,NNE,9.2,-,N/A,,Partly Cloudy,20,2013-12-05 01:30:00
12:00 PM,82,66,48,29.81,19,NNE,9.2,,,,Partly Cloudy,20,2013-12-05 02:00:00
12:00 PM,82.4,66.2,58,29.80,6.2,NNE,9.2,-,N/A,,Partly Cloudy,20,2013-12-05 02:00:00
12:30 PM,84.2,66.2,55,29.80,-9999.0,NNE,9.2,-,N/A,,Clear,20,2013-12-05 02:30:00
1:00 PM,83,66,48,29.78,,North,9.2,,,,,10,2013-12-05 03:00:00
1:00 PM,82.4,66.2,58,29.77,6.2,North,9.2,-,N/A,,Partly Cloudy,10,2013-12-05 03:00:00
1:30 PM,82.4,64.4,54,29.74,6.2,NNE,9.2,-,N/A,,Partly Cloudy,20,2013-12-05 03:30:00
2:00 PM,82.4,66.2,58,29.74,-9999.0,North,9.2,-,N/A,,Clear,10,2013-12-05 04:00:00
2:30 PM,82.4,66.2,58,29.74,6.2,North,8.1,-,N/A,,Partly Cloudy,10,2013-12-05 04:30:00
3:00 PM,83,63,42,29.73,19,NNE,8.1,,,,,20,2013-12-05 05:00:00
3:00 PM,82.4,62.6,51,29.71,-9999.0,NNE,8.1,-,N/A,,Clear,20,2013-12-05 05:00:00
3:30 PM,82.4,66.2,58,29.71,-9999.0,NNE,8.1,-,N/A,,Clear,20,2013-12-05 05:30:00
4:00 PM,83,64,42,29.73,,NNE,8.1,,,,,20,2013-12-05 06:00:00
4:00 PM,82.4,64.4,54,29.71,-9999.0,NNE,8.1,-,N/A,,Clear,20,2013-12-05 06:00:00
4:30 PM,82.4,66.2,58,29.71,-9999.0,NNE,8.1,-,N/A,,Clear,20,2013-12-05 06:30:00
5:00 PM,82.4,66.2,58,29.71,-9999.0,NNE,8.1,-,N/A,,Clear,30,2013-12-05 07:00:00
5:30 PM,82.4,64.4,54,29.71,-9999.0,North,6.9,-,N/A,,Clear,360,2013-12-05 07:30:00
6:00 PM,80,65,51,29.74,,North,5.8,,,,,350,2013-12-05 08:00:00
6:00 PM,80.6,64.4,58,29.74,-9999.0,North,5.8,-,N/A,,Clear,350,2013-12-05 08:00:00
6:30 PM,78.8,66.2,65,29.74,-9999.0,NNE,4.6,-,N/A,,Clear,30,2013-12-05 08:30:00
7:00 PM,77,66,61,29.77,,NNE,3.5,,,,,30,2013-12-05 09:00:00
7:00 PM,77.0,66.2,69,29.74,-9999.0,NNE,3.5,-,N/A,,Clear,30,2013-12-05 09:00:00
7:30 PM,77.0,66.2,69,29.77,6.2,Calm,Calm,-,N/A,,Partly Cloudy,0,2013-12-05 09:30:00
8:00 PM,77.0,66.2,69,29.77,6.2,NW,2.3,-,N/A,,Partly Cloudy,320,2013-12-05 10:00:00
8:30 PM,77.0,66.2,69,29.77,6.2,WNW,4.6,-,N/A,,Partly Cloudy,300,2013-12-05 10:30:00
9:00 PM,75,68,72,29.79,,WNW,3.5,,,,,290,2013-12-05 11:00:00
9:00 PM,75.2,68.0,78,29.77,6.2,WNW,3.5,-,N/A,,Partly Cloudy,290,2013-12-05 11:00:00
9:30 PM,73.4,68.0,83,29.77,6.2,West,3.5,-,N/A,,Partly Cloudy,280,2013-12-05 11:30:00
10:00 PM,74,68,76,29.80,,WNW,2.3,,,,,290,2013-12-05 12:00:00
10:00 PM,73.4,68.0,83,29.77,6.2,WNW,2.3,-,N/A,,Partly Cloudy,290,2013-12-05 12:00:00
10:30 PM,75.2,68.0,78,29.80,-9999.0,West,5.8,-,N/A,,Clear,270,2013-12-05 12:30:00
11:00 PM,73.4,68.0,83,29.80,-9999.0,Calm,Calm,-,N/A,,Clear,0,2013-12-05 13:00:00
11:30 PM,73.4,66.2,78,29.80,-9999.0,Calm,Calm,-,N/A,,Clear,0,2013-12-05 13:30:00